Weather History for KGCN - October, 2013

Change the Weather History Date:

Thursday, October 3, 2013

  Actual Average Record
Temperature  
Mean Temperature 51 °F -  
Max Temperature 68 °F 68 °F 81 °F (2012)
Min Temperature 30 °F 33 °F 21 °F (1989)
Degree Days  
Heating Degree Days 14    
Growing Degree Days 1 (Base 50)    
Moisture  
Dew Point 26 °F    
Average Humidity 43    
Maximum Humidity 73    
Minimum Humidity 17    
Precipitation  
Precipitation 0.00 in - - ()
Sea Level Pressure  
Sea Level Pressure 29.80 in    
Wind  
Wind Speed 9 mph (SW)    
Max Wind Speed 31 mph    
Max Gust Speed 40 mph    
Visibility 10 miles    
Events      
Averages and records for this station are not official NWS values.
T = Trace of Precipitation, MM = Missing Value Source: NWS Daily Summary

Daily Weather History Graph

Daily Weather History Graph

Search for Another Location

Airport or City:

Trip Planner

Search our weather history database for the weather conditions in past years. The results will help you decide how hot, cold, wet, or windy it might be!

Date:

Astronomy

Oct. 03, 2013 Rise Set
Actual Time 6:25 AM MST 6:08 PM MST
Civil Twilight 5:59 AM MST 6:34 PM MST
Nautical Twilight 5:30 AM MST 7:04 PM MST
Astronomical Twilight 5:00 AM MST 7:33 PM MST
Moon 5:04 AM MST (10/3) 5:18 PM MST (10/3)
Length of Visible Light 12h 34m
Length of Day
11h 43m
Waning Crescent, 2% of the Moon is Illuminated
Oct 3
Waning Crescent
Oct 4
New
Oct 11
First Quarter
Oct 18
Full
Oct 26
Last Quarter

Hourly Weather History & Observations

Time (MST) Temp. Windchill Dew Point Humidity Pressure Visibility Wind Dir Wind Speed Gust Speed Precip Events Conditions
12:54 AM 37.0 °F - 25.0 °F 62% 29.89 in 10.0 mi Calm Calm - N/A   Clear
1:54 AM 37.9 °F 33.5 °F 27.0 °F 65% 29.87 in 10.0 mi NE 5.8 mph - N/A   Clear
2:54 AM 35.1 °F - 27.0 °F 72% 29.86 in 10.0 mi Calm Calm - N/A   Clear
3:54 AM 34.0 °F - 26.1 °F 73% 29.87 in 10.0 mi Calm Calm - N/A   Clear
4:54 AM 34.0 °F 31.0 °F 26.1 °F 73% 29.86 in 10.0 mi WSW 3.5 mph - N/A   Clear
5:54 AM 37.0 °F - 28.9 °F 73% 29.86 in 10.0 mi Calm Calm - N/A   Clear
6:54 AM 46.0 °F 41.4 °F 34.0 °F 63% 29.82 in 10.0 mi SSW 9.2 mph - N/A   Partly Cloudy
7:54 AM 53.1 °F - 37.0 °F 55% 29.82 in 10.0 mi SW 13.8 mph - N/A   Partly Cloudy
8:54 AM 57.0 °F - 37.9 °F 49% 29.80 in 10.0 mi SSW 19.6 mph 24.2 mph N/A   Clear
9:54 AM 60.1 °F - 35.1 °F 39% 29.80 in 10.0 mi SW 26.5 mph 34.5 mph N/A   Clear
10:54 AM 63.0 °F - 34.0 °F 34% 29.80 in 10.0 mi SW 21.9 mph 34.5 mph N/A   Clear
11:54 AM 64.9 °F - 33.1 °F 31% 29.76 in 10.0 mi SSW 27.6 mph 40.3 mph N/A   Clear
12:54 PM 68.0 °F - 25.0 °F 20% 29.73 in 10.0 mi WSW 21.9 mph 32.2 mph N/A   Clear
1:54 PM 68.0 °F - 25.0 °F 20% 29.71 in 10.0 mi SW 31.1 mph 38.0 mph N/A   Clear
2:54 PM 68.0 °F - 21.9 °F 17% 29.73 in 10.0 mi WSW 21.9 mph 36.8 mph N/A   Partly Cloudy
3:54 PM 66.0 °F - 19.9 °F 17% 29.73 in 10.0 mi WSW 18.4 mph 32.2 mph N/A   Clear
4:54 PM 64.0 °F - 19.0 °F 18% 29.74 in 10.0 mi SW 18.4 mph 29.9 mph N/A   Clear
5:54 PM 60.1 °F - 21.0 °F 22% 29.75 in 10.0 mi WSW 15.0 mph 29.9 mph N/A   Clear
6:54 PM 55.9 °F - 19.9 °F 25% 29.76 in 10.0 mi WSW 9.2 mph 18.4 mph N/A   Clear
7:54 PM 53.1 °F - 21.9 °F 30% 29.76 in 10.0 mi WSW 9.2 mph - N/A   Clear
9:54 PM 46.9 °F - 18.0 °F 32% 29.81 in 10.0 mi Calm Calm - N/A   Clear
10:54 PM 42.1 °F - 18.0 °F 38% 29.84 in 10.0 mi Calm Calm - N/A   Clear
11:54 PM 30.9 °F - 17.1 °F 57% 29.90 in 10.0 mi Calm Calm - N/A   Clear